SL-14 R/B (18749 NORAD) Tracking and Keplerian Element Data

This shows tracking and keplerian element data for the satellite.

Feedback or suggestion? Click here.




ElementValue
Catalog18749
NameSL-14 R/B
Epoch Orbit392
Epoch Day34.98121879
Epoch Year2025
RAAN210.269
Inclination82.5118
Eccentricity0.0019488
Argument of Perigee114.7994
Mean Anonmoly245.5252
Mean Motion14.84966141
Decay Rate1.096E-05
L11 18749U 88001B 25034.98121879 .00001096 00000+0 12540-3 0 9995
L22 18749 82.5118 210.2690 0019488 114.7994 245.5252 14.84966141 3924



Live tracking and technical data element details for SL-14 R/B (NORAD 18749). SL-14 R/B can be tracked NOW for your location showing map with azimuth and elevation plus other details from your city location.







IsCatalogInMostPopularTable: catalog: 18749, numindb: 391
Update: records affected: 1



GetName: 18749 SL-14 R/B

Hit Count: updated at: Sat, 06 Dec 2025 19:18:58 GMT